Total_Precipitation_Accumulation
0.17 0.18 0.11 0.13 0.20 0.16 0.35 0.32 0.24 0.27 0.34 0.40 0.17 0.23 0.32 0.13 0.14 0.15 0.13 0.10 0.11 0.22 0.04 0.07 0.05 0.04 0.19 0.02 0.02 0.01 0.01 0.01 0.01 0.02 0.02 0.04 0.14 0.16 0.03 0.08 0.14 0.14 0.08 0.32 0.54 0.49 0.36 0.35 0.15 0.18 0.17 0.14 0.19 0.15 0.18 0.10 0.13 0.07 0.11 0.09 0.10 0.09 0.08 0.13 0.12 0.18 0.10 0.15 0.17 0.33 0.48 0.60 0.55 1.06 1.28 0.77 0.51 0.87 1.22 1.08 0.78 0.33 0.13 0.13 0.06
0.10 0.10 0.12 0.14 0.22 0.21 0.23 0.16 0.25 0.28 0.34 0.27 0.22 0.25 0.28 0.15 0.14 0.11 0.04 0.10 0.11 0.05 0.05 0.08 0.04 0.01 0.03 0.02 0.01 0.01 0.00 0.00 0.01 0.01 0.01 0.05 0.08 0.09 0.01 0.03 0.09 0.14 0.15 0.21 0.35 0.49 0.44 0.28 0.35 0.19 0.14 0.29 0.34 0.19 0.20 0.15 0.11 0.09 0.09 0.08 0.12 0.13 0.11 0.07 0.06 0.09 0.11 0.17 0.15 0.14 0.38 0.51 0.71 0.99 0.46 0.60 1.16 0.93 0.60 0.86 1.11 1.49 0.30 0.21 0.05
0.15 0.15 0.18 0.08 0.15 0.27 0.18 0.34 0.34 0.29 0.14 0.15 0.23 0.17 0.14 0.10 0.06 0.18 0.20 0.15 0.10 0.07 0.04 0.06 0.03 0.03 0.06 0.01 0.01 0.01 0.01 0.01 0.02 0.02 0.03 0.03 0.05 0.13 0.10 0.04 0.14 0.09 0.20 0.21 0.18 0.15 0.26 0.40 0.42 0.20 0.21 0.22 0.30 0.53 0.20 0.21 0.22 0.14 0.09 0.07 0.08 0.07 0.08 0.06 0.06 0.07 0.09 0.14 0.15 0.18 0.24 0.27 0.38 0.48 0.55 0.59 0.49 0.30 0.43 0.39 0.78 1.30 1.23 0.31 0.24
0.14 0.18 0.13 0.16 0.17 0.26 0.32 0.60 0.60 0.23 0.21 0.31 0.28 0.26 0.17 0.10 0.07 0.12 0.17 0.24 0.05 0.05 0.01 0.08 0.04 0.02 0.02 0.01 0.01 0.02 0.01 0.01 0.01 0.01 0.00 0.00 0.01 0.11 0.18 0.20 0.08 0.12 0.16 0.10 0.13 0.35 0.21 0.19 0.19 0.17 0.29 0.29 0.45 0.49 0.38 0.17 0.22 0.13 0.12 0.18 0.15 0.08 0.09 0.15 0.08 0.09 0.13 0.10 0.14 0.16 0.20 0.22 0.22 0.35 0.38 0.25 0.31 0.18 0.35 0.48 0.90 1.11 0.73 0.71 0.57
0.08 0.13 0.16 0.26 0.25 0.40 0.42 0.38 0.35 0.22 0.30 0.30 0.24 0.26 0.12 0.18 0.14 0.16 0.31 0.29 0.11 0.10 0.03 0.02 0.03 0.02 0.02 0.04 0.01 0.00 0.00 0.00 0.01 0.02 0.01 0.01 0.01 0.06 0.09 0.12 0.15 0.06 0.05 0.05 0.12 0.19 0.15 0.21 0.24 0.10 0.14 0.28 0.74 0.68 0.31 0.19 0.25 0.26 0.19 0.29 0.44 0.21 0.24 0.26 0.22 0.20 0.13 0.10 0.11 0.13 0.16 0.18 0.16 0.25 0.21 0.35 0.57 0.60 0.34 0.24 0.65 0.67 0.67 1.01 0.78
0.17 0.21 0.31 0.30 0.29 0.23 0.54 0.31 0.24 0.27 0.27 0.38 0.28 0.33 0.27 0.19 0.16 0.30 0.14 0.22 0.14 0.08 0.02 0.03 0.02 0.01 0.02 0.00 0.02 0.02 0.01 0.00 0.00 0.00 0.01 0.02 0.01 0.03 0.08 0.11 0.13 0.18 0.18 0.07 0.05 0.11 0.09 0.21 0.28 0.22 0.24 0.22 0.23 0.24 0.29 0.20 0.34 0.32 0.41 0.75 0.52 0.29 0.18 0.20 0.17 0.20 0.29 0.35 0.23 0.16 0.14 0.11 0.12 0.11 0.23 0.37 0.40 0.63 0.37 0.33 0.45 0.36 0.35 1.02 1.05
0.24 0.21 0.21 0.16 0.27 0.38 0.23 0.31 0.26 0.27 0.45 0.25 0.50 0.44 0.26 0.27 0.37 0.51 0.42 0.09 0.09 0.07 0.03 0.05 0.02 0.02 0.00 0.01 0.01 0.01 0.01 0.01 0.00 0.00 0.00 0.00 0.01 0.03 0.03 0.09 0.07 0.13 0.13 0.23 0.07 0.07 0.08 0.19 0.33 0.42 0.24 0.19 0.23 0.16 0.28 0.16 0.44 0.31 0.44 0.60 0.51 0.33 0.20 0.18 0.26 0.26 0.25 0.27 0.50 0.42 0.38 0.14 0.16 0.19 0.15 0.19 0.23 0.33 0.81 0.56 0.37 0.19 0.36 0.41 0.47
0.32 0.23 0.19 0.35 0.24 0.27 0.47 0.47 0.16 0.54 0.38 0.31 0.40 0.28 0.25 0.27 0.26 0.64 0.26 0.14 0.03 0.05 0.04 0.02 0.03 0.01 0.01 0.01 0.00 0.00 0.01 0.02 0.01 0.01 0.00 0.01 0.03 0.03 0.04 0.03 0.06 0.08 0.09 0.11 0.20 0.07 0.05 0.10 0.24 0.35 0.24 0.24 0.32 0.47 0.40 0.40 0.47 0.36 0.39 0.32 0.33 0.49 0.39 0.23 0.28 0.32 0.45 0.43 0.50 0.47 0.49 0.36 0.36 0.33 0.33 0.41 0.32 0.30 0.47 0.79 0.68 0.36 0.33 0.36 0.24
0.35 0.28 0.30 0.38 0.31 0.39 0.35 0.40 0.49 0.50 0.37 0.49 0.43 0.32 0.58 0.26 0.15 0.17 0.18 0.17 0.08 0.06 0.04 0.02 0.01 0.01 0.01 0.00 0.01 0.01 0.01 0.02 0.01 0.00 0.00 0.01 0.03 0.06 0.03 0.02 0.02 0.06 0.07 0.12 0.14 0.22 0.04 0.01 0.12 0.17 0.19 0.20 0.17 0.37 0.30 0.51 0.48 0.66 0.50 0.39 0.30 0.41 0.25 0.27 0.46 0.41 0.70 0.67 0.96 0.61 0.53 0.37 0.47 0.41 0.43 0.61 0.53 0.44 0.41 0.41 0.72 0.84 0.49 0.38 0.14
0.28 0.26 0.34 0.12 0.28 0.41 0.26 0.16 0.24 0.30 0.38 0.42 0.31 0.31 0.24 0.27 0.33 0.17 0.14 0.15 0.13 0.09 0.04 0.02 0.01 0.01 0.01 0.02 0.00 0.00 0.00 0.00 0.00 0.00 0.00 0.00 0.01 0.01 0.03 0.04 0.04 0.04 0.07 0.06 0.15 0.14 0.18 0.06 0.02 0.07 0.05 0.06 0.07 0.14 0.41 0.39 0.46 0.42 0.34 0.41 0.49 0.40 0.60 0.50 0.62 0.47 0.48 0.63 0.72 0.66 0.50 0.53 0.52 0.46 0.36 0.45 0.49 0.68 0.76 0.57 0.40 0.57 0.65 0.57 0.40
0.27 0.28 0.18 0.18 0.24 0.24 0.19 0.31 0.29 0.18 0.32 0.57 0.40 0.34 0.28 0.21 0.26 0.12 0.08 0.18 0.09 0.04 0.02 0.01 0.00 0.01 0.01 0.00 0.00 0.00 0.00 0.00 0.00 0.00 0.01 0.02 0.00 0.02 0.03 0.01 0.01 0.03 0.07 0.08 0.14 0.11 0.16 0.23 0.22 0.26 0.17 0.07 0.17 0.25 0.24 0.16 0.14 0.27 0.36 0.39 0.31 0.54 0.85 0.67 0.54 0.46 0.53 0.55 0.47 0.47 0.47 0.62 0.51 0.74 0.57 0.57 0.68 0.60 0.56 0.36 0.51 0.47 0.39 0.53 0.52
0.18 0.23 0.19 0.21 0.26 0.23 0.26 0.18 0.26 0.26 0.41 0.50 0.25 0.22 0.30 0.22 0.10 0.12 0.18 0.09 0.03 0.01 0.01 0.01 0.01 0.00 0.00 0.00 0.00 0.00 0.00 0.00 0.00 0.00 0.00 0.00 0.01 0.01 0.02 0.00 0.01 0.01 0.02 0.03 0.04 0.12 0.14 0.16 0.26 0.31 0.25 0.13 0.15 0.17 0.16 0.23 0.30 0.17 0.14 0.27 0.57 0.65 0.69 0.62 0.46 0.61 0.41 0.52 0.60 0.49 0.39 0.42 0.43 0.45 0.34 0.56 0.40 0.50 0.50 0.48 0.32 0.41 0.43 0.30 0.35
0.31 0.31 0.17 0.20 0.26 0.43 0.34 0.26 0.22 0.33 0.25 0.31 0.23 0.38 0.16 0.13 0.11 0.09 0.19 0.06 0.05 0.02 0.01 0.02 0.01 0.01 0.00 0.00 0.00 0.00 0.00 0.00 0.01 0.00 0.00 0.01 0.00 0.00 0.00 0.00 0.00 0.01 0.00 0.02 0.02 0.02 0.04 0.06 0.08 0.11 0.19 0.27 0.18 0.09 0.18 0.14 0.10 0.07 0.15 0.30 0.33 0.41 0.29 0.48 0.66 0.61 0.41 0.30 0.43 0.35 0.31 0.52 0.34 0.29 0.33 0.27 0.32 0.60 0.51 0.37 0.28 0.28 0.40 0.30 0.31
0.21 0.27 0.17 0.10 0.22 0.12 0.21 0.26 0.21 0.46 0.24 0.18 0.16 0.08 0.08 0.18 0.13 0.16 0.16 0.07 0.02 0.05 0.01 0.01 0.04 0.03 0.02 0.00 0.01 0.00 0.00 0.00 0.01 0.01 0.01 0.00 0.01 0.02 0.00 0.00 0.00 0.00 0.01 0.01 0.00 0.00 0.01 0.04 0.04 0.06 0.08 0.14 0.14 0.18 0.28 0.27 0.13 0.03 0.06 0.09 0.16 0.17 0.22 0.26 0.36 0.64 0.48 0.36 0.32 0.29 0.15 0.23 0.21 0.26 0.32 0.37 0.26 0.35 0.40 0.40 0.37 0.29 0.36 0.27 0.30
0.25 0.16 0.13 0.15 0.21 0.25 0.30 0.31 0.22 0.15 0.16 0.16 0.12 0.16 0.16 0.12 0.12 0.22 0.13 0.03 0.02 0.01 0.02 0.03 0.05 0.01 0.00 0.00 0.01 0.03 0.08 0.01 0.00 0.00 0.00 0.00 0.01 0.01 0.00 0.00 0.00 0.00 0.00 0.00 0.01 0.01 0.01 0.02 0.00 0.01 0.01 0.02 0.08 0.11 0.11 0.12 0.07 0.01 0.00 0.01 0.01 0.03 0.11 0.12 0.16 0.12 0.22 0.39 0.38 0.21 0.20 0.19 0.18 0.17 0.25 0.25 0.26 0.30 0.33 0.24 0.32 0.32 0.26 0.20 0.22
0.20 0.11 0.16 0.23 0.29 0.30 0.30 0.21 0.16 0.12 0.13 0.28 0.13 0.14 0.13 0.20 0.10 0.12 0.21 0.12 0.03 0.02 0.01 0.01 0.01 0.00 0.02 0.06 0.02 0.01 0.01 0.01 0.00 0.00 0.00 0.00 0.01 0.00 0.00 0.00 0.00 0.00 0.00 0.01 0.00 0.00 0.02 0.00 0.02 0.00 0.01 0.00 0.01 0.01 0.04 0.02 0.02 0.01 0.02 0.02 0.01 0.01 0.02 0.02 0.03 0.08 0.18 0.31 0.12 0.05 0.07 0.08 0.04 0.06 0.15 0.13 0.20 0.17 0.23 0.22 0.29 0.20 0.15 0.24 0.16
0.10 0.13 0.21 0.25 0.15 0.19 0.14 0.09 0.11 0.10 0.12 0.27 0.22 0.19 0.22 0.11 0.14 0.15 0.17 0.24 0.04 0.02 0.02 0.01 0.01 0.01 0.02 0.03 0.02 0.02 0.03 0.01 0.00 0.01 0.01 0.00 0.00 0.01 0.00 0.00 0.00 0.00 0.00 0.00 0.00 0.00 0.02 0.01 0.01 0.00 0.00 0.01 0.02 0.02 0.01 0.00 0.00 0.01 0.01 0.00 0.01 0.01 0.02 0.02 0.02 0.02 0.06 0.13 0.13 0.12 0.09 0.02 0.01 0.01 0.04 0.13 0.18 0.21 0.20 0.20 0.16 0.14 0.12 0.18 0.17
0.11 0.13 0.24 0.21 0.11 0.08 0.07 0.12 0.07 0.11 0.11 0.19 0.10 0.15 0.11 0.17 0.11 0.15 0.09 0.11 0.06 0.01 0.02 0.03 0.01 0.01 0.01 0.01 0.02 0.14 0.03 0.04 0.00 0.15 0.00 0.01 0.00 0.00 0.00 0.00 0.00 0.00 0.00 0.00 0.00 0.00 0.00 0.01 0.00 0.01 0.00 0.00 0.01 0.00 0.00 0.00 0.00 0.00 0.00 0.00 0.00 0.00 0.00 0.00 0.00 0.01 0.03 0.03 0.05 0.13 0.08 0.03 0.03 0.05 0.05 0.06 0.12 0.19 0.18 0.19 0.25 0.15 0.11 0.15 0.17
0.09 0.05 0.06 0.08 0.11 0.10 0.04 0.07 0.08 0.08 0.08 0.15 0.19 0.22 0.16 0.17 0.06 0.05 0.08 0.06 0.02 0.01 0.01 0.01 0.01 0.01 0.01 0.01 0.01 0.03 0.04 0.02 0.06 0.00 0.03 0.00 0.02 0.01 0.01 0.04 0.03 0.00 0.00 0.00 0.00 0.00 0.00 0.00 0.00 0.00 0.00 0.02 0.02 0.00 0.00 0.02 0.00 0.00 0.00 0.00 0.00 0.00 0.00 0.00 0.00 0.00 0.00 0.00 0.02 0.06 0.12 0.02 0.02 0.02 0.01 0.02 0.05 0.21 0.28 0.23 0.04 0.07 0.13 0.12 0.11
0.07 0.03 0.06 0.04 0.09 0.07 0.05 0.07 0.02 0.06 0.07 0.09 0.15 0.15 0.19 0.09 0.07 0.13 0.10 0.04 0.05 0.02 0.02 0.02 0.02 0.04 0.03 0.04 0.03 0.02 0.01 0.01 0.01 0.01 0.03 0.02 0.01 0.00 0.05 0.00 0.06 0.02 0.03 0.07 0.00 0.00 0.00 0.00 0.00 0.00 0.02 0.01 0.01 0.01 0.02 0.00 0.02 0.01 0.00 0.00 0.00 0.00 0.00 0.00 0.00 0.00 0.00 0.00 0.00 0.00 0.01 0.01 0.05 0.05 0.05 0.02 0.03 0.13 0.28 0.13 0.14 0.13 0.10 0.06 0.08
0.06 0.05 0.03 0.04 0.06 0.03 0.06 0.05 0.06 0.06 0.07 0.11 0.07 0.09 0.06 0.09 0.08 0.06 0.04 0.04 0.06 0.01 0.01 0.02 0.03 0.06 0.06 0.07 0.02 0.01 0.01 0.00 0.00 0.00 0.03 0.04 0.00 0.01 0.02 0.00 0.00 0.01 0.00 0.05 0.01 0.00 0.00 0.00 0.00 0.01 0.01 0.01 0.03 0.00 0.00 0.01 0.05 0.00 0.00 0.00 0.00 0.00 0.00 0.00 0.00 0.00 0.00 0.00 0.00 0.00 0.00 0.00 0.00 0.01 0.01 0.02 0.01 0.03 0.12 0.22 0.23 0.19 0.07 0.10 0.09
0.06 0.03 0.05 0.01 0.02 0.04 0.04 0.06 0.06 0.06 0.04 0.10 0.08 0.07 0.04 0.06 0.04 0.06 0.05 0.10 0.04 0.01 0.03 0.02 0.02 0.05 0.02 0.05 0.03 0.01 0.00 0.00 0.02 0.01 0.02 0.00 0.04 0.07 0.01 0.04 0.01 0.01 0.00 0.00 0.01 0.00 0.00 0.00 0.00 0.01 0.04 0.02 0.01 0.00 0.01 0.02 0.01 0.00 0.01 0.00 0.00 0.00 0.00 0.00 0.00 0.00 0.00 0.00 0.00 0.00 0.00 0.00 0.00 0.00 0.00 0.01 0.02 0.01 0.01 0.04 0.09 0.21 0.11 0.06 0.03
0.03 0.02 0.01 0.01 0.01 0.01 0.03 0.04 0.06 0.09 0.02 0.07 0.08 0.04 0.05 0.02 0.02 0.04 0.04 0.08 0.03 0.02 0.01 0.01 0.01 0.02 0.02 0.01 0.00 0.00 0.01 0.00 0.00 0.01 0.00 0.00 0.00 0.09 0.33 0.01 0.01 0.02 0.01 0.00 0.00 0.02 0.02 0.01 0.00 0.02 0.03 0.03 0.01 0.01 0.03 0.01 0.00 0.00 0.00 0.00 0.00 0.00 0.00 0.00 0.00 0.00 0.00 0.00 0.00 0.00 0.00 0.00 0.00 0.00 0.00 0.00 0.01 0.01 0.02 0.03 0.02 0.02 0.08 0.11 0.06
0.03 0.04 0.03 0.00 0.01 0.01 0.02 0.04 0.04 0.06 0.03 0.06 0.06 0.03 0.08 0.02 0.02 0.03 0.04 0.04 0.03 0.05 0.02 0.02 0.01 0.02 0.02 0.01 0.00 0.00 0.01 0.00 0.01 0.00 0.00 0.01 0.00 0.02 0.03 0.01 0.01 0.00 0.01 0.01 0.00 0.00 0.01 0.04 0.02 0.02 0.01 0.01 0.01 0.03 0.00 0.00 0.01 0.00 0.00 0.00 0.00 0.00 0.00 0.00 0.00 0.00 0.00 0.00 0.00 0.00 0.00 0.00 0.00 0.00 0.00 0.00 0.00 0.00 0.01 0.01 0.01 0.02 0.03 0.03 0.09
0.01 0.05 0.02 0.02 0.02 0.01 0.01 0.04 0.03 0.02 0.03 0.06 0.09 0.05 0.06 0.10 0.07 0.01 0.01 0.02 0.03 0.02 0.02 0.02 0.01 0.02 0.02 0.01 0.00 0.00 0.01 0.01 0.00 0.00 0.00 0.01 0.00 0.00 0.00 0.00 0.00 0.09 0.00 0.00 0.01 0.00 0.01 0.00 0.02 0.01 0.01 0.02 0.01 0.01 0.01 0.00 0.03 0.01 0.00 0.00 0.00 0.00 0.00 0.00 0.00 0.00 0.00 0.00 0.00 0.00 0.00 0.00 0.00 0.00 0.00 0.00 0.00 0.00 0.00 0.00 0.00 0.00 0.01 0.02 0.03
0.01 0.01 0.03 0.02 0.01 0.01 0.01 0.01 0.02 0.03 0.03 0.05 0.07 0.05 0.03 0.06 0.04 0.03 0.04 0.02 0.02 0.02 0.02 0.01 0.00 0.00 0.01 0.02 0.01 0.01 0.01 0.00 0.01 0.01 0.00 0.01 0.01 0.01 0.02 0.00 0.00 0.03 0.01 0.01 0.00 0.01 0.02 0.06 0.06 0.02 0.01 0.00 0.01 0.01 0.02 0.01 0.02 0.00 0.00 0.00 0.00 0.00 0.00 0.00 0.00 0.00 0.00 0.00 0.00 0.00 0.00 0.00 0.00 0.00 0.00 0.00 0.00 0.00 0.00 0.00 0.00 0.00 0.00 0.00 0.00
0.01 0.01 0.01 0.00 0.00 0.01 0.01 0.01 0.01 0.03 0.02 0.03 0.04 0.03 0.04 0.03 0.03 0.05 0.09 0.04 0.03 0.02 0.03 0.02 0.02 0.01 0.01 0.01 0.00 0.01 0.00 0.01 0.01 0.01 0.01 0.01 0.02 0.02 0.03 0.03 0.00 0.01 0.00 0.00 0.02 0.02 0.02 0.02 0.03 0.01 0.08 0.00 0.01 0.00 0.02 0.00 0.00 0.00 0.00 0.00 0.00 0.00 0.00 0.00 0.00 0.00 0.00 0.00 0.00 0.00 0.00 0.00 0.00 0.00 0.00 0.00 0.00 0.00 0.00 0.00 0.00 0.00 0.00 0.00 0.00
0.01 0.01 0.00 0.00 0.01 0.01 0.01 0.00 0.02 0.02 0.02 0.02 0.03 0.04 0.04 0.03 0.05 0.03 0.08 0.03 0.02 0.02 0.02 0.03 0.02 0.01 0.01 0.00 0.01 0.01 0.01 0.01 0.01 0.01 0.02 0.02 0.03 0.02 0.05 0.04 0.08 0.03 0.01 0.00 0.00 0.00 0.00 0.01 0.02 0.02 0.01 0.02 0.01 0.01 0.01 0.00 0.01 0.01 0.00 0.00 0.00 0.02 0.00 0.00 0.00 0.00 0.00 0.00 0.00 0.00 0.00 0.00 0.00 0.00 0.00 0.00 0.00 0.00 0.00 0.00 0.00 0.00 0.00 0.00 0.00
0.06 0.00 0.01 0.00 0.01 0.01 0.00 0.01 0.01 0.02 0.04 0.02 0.02 0.04 0.06 0.03 0.07 0.05 0.10 0.02 0.04 0.03 0.02 0.03 0.04 0.02 0.02 0.02 0.01 0.02 0.00 0.00 0.01 0.01 0.01 0.01 0.02 0.02 0.03 0.04 0.07 0.04 0.02 0.00 0.00 0.00 0.00 0.00 0.01 0.02 0.02 0.03 0.01 0.04 0.03 0.03 0.01 0.00 0.01 0.01 0.02 0.02 0.00 0.00 0.00 0.00 0.00 0.00 0.00 0.00 0.00 0.00 0.00 0.00 0.00 0.00 0.00 0.00 0.00 0.00 0.00 0.00 0.00 0.00 0.00
0.00 0.06 0.01 0.03 0.00 0.00 0.00 0.01 0.01 0.01 0.02 0.02 0.03 0.02 0.05 0.03 0.05 0.05 0.03 0.02 0.04 0.06 0.02 0.03 0.03 0.03 0.01 0.03 0.02 0.01 0.00 0.00 0.01 0.01 0.01 0.01 0.02 0.02 0.02 0.02 0.03 0.09 0.04 0.01 0.01 0.00 0.00 0.00 0.00 0.02 0.04 0.04 0.03 0.03 0.02 0.01 0.01 0.00 0.00 0.00 0.01 0.01 0.00 0.00 0.00 0.00 0.00 0.00 0.00 0.00 0.00 0.00 0.00 0.00 0.00 0.00 0.00 0.00 0.00 0.00 0.00 0.00 0.00 0.00 0.00
0.00 0.06 0.01 0.01 0.01 0.01 0.00 0.00 0.01 0.01 0.01 0.02 0.02 0.02 0.04 0.06 0.02 0.06 0.03 0.02 0.04 0.07 0.02 0.01 0.04 0.02 0.03 0.01 0.01 0.01 0.01 0.01 0.01 0.01 0.01 0.02 0.01 0.02 0.03 0.02 0.03 0.03 0.06 0.08 0.01 0.02 0.00 0.01 0.00 0.02 0.04 0.02 0.01 0.03 0.03 0.02 0.00 0.00 0.00 0.00 0.00 0.00 0.00 0.00 0.00 0.00 0.00 0.00 0.00 0.00 0.00 0.00 0.00 0.00 0.00 0.00 0.00 0.00 0.00 0.00 0.00 0.00 0.00 0.00 0.00
0.00 0.00 0.02 0.04 0.01 0.00 0.00 0.00 0.03 0.03 0.05 0.00 0.01 0.02 0.02 0.03 0.05 0.03 0.04 0.03 0.02 0.02 0.02 0.02 0.01 0.01 0.01 0.01 0.01 0.01 0.02 0.02 0.01 0.02 0.02 0.01 0.01 0.03 0.01 0.01 0.02 0.01 0.03 0.05 0.05 0.00 0.01 0.01 0.01 0.01 0.00 0.02 0.02 0.00 0.00 0.01 0.01 0.00 0.00 0.00 0.00 0.00 0.00 0.00 0.00 0.00 0.00 0.00 0.00 0.00 0.00 0.00 0.00 0.00 0.00 0.00 0.00 0.00 0.00 0.00 0.00 0.00 0.00 0.00 0.00
0.01 0.01 0.00 0.01 0.00 0.02 0.01 0.00 0.01 0.01 0.01 0.03 0.02 0.01 0.01 0.02 0.02 0.02 0.06 0.08 0.03 0.02 0.01 0.01 0.01 0.02 0.01 0.01 0.01 0.02 0.02 0.02 0.02 0.01 0.02 0.01 0.01 0.03 0.02 0.01 0.03 0.04 0.04 0.03 0.07 0.02 0.01 0.00 0.01 0.01 0.01 0.01 0.02 0.00 0.01 0.02 0.01 0.02 0.00 0.00 0.00 0.00 0.00 0.00 0.02 0.01 0.00 0.00 0.00 0.00 0.00 0.00 0.00 0.00 0.00 0.00 0.00 0.00 0.00 0.00 0.00 0.00 0.00 0.00 0.00
0.00 0.00 0.02 0.00 0.02 0.01 0.02 0.00 0.00 0.01 0.08 0.01 0.01 0.01 0.02 0.02 0.01 0.01 0.03 0.02 0.03 0.01 0.01 0.02 0.01 0.00 0.01 0.01 0.01 0.02 0.02 0.03 0.02 0.02 0.04 0.01 0.02 0.06 0.04 0.03 0.05 0.07 0.05 0.04 0.02 0.05 0.01 0.01 0.01 0.02 0.02 0.02 0.02 0.01 0.02 0.02 0.03 0.02 0.01 0.00 0.02 0.01 0.01 0.00 0.02 0.10 0.01 0.00 0.00 0.00 0.00 0.00 0.00 0.00 0.00 0.00 0.00 0.00 0.00 0.00 0.00 0.00 0.00 0.00 0.00
0.01 0.01 0.01 0.02 0.01 0.01 0.01 0.01 0.01 0.02 0.02 0.02 0.01 0.02 0.03 0.04 0.01 0.00 0.02 0.01 0.01 0.01 0.01 0.00 0.01 0.01 0.01 0.01 0.01 0.01 0.01 0.02 0.01 0.01 0.00 0.00 0.02 0.02 0.05 0.04 0.04 0.02 0.05 0.04 0.07 0.07 0.06 0.02 0.01 0.02 0.01 0.02 0.01 0.03 0.01 0.01 0.01 0.01 0.03 0.02 0.01 0.02 0.00 0.00 0.01 0.01 0.01 0.00 0.00 0.00 0.00 0.00 0.00 0.00 0.00 0.00 0.00 0.00 0.00 0.00 0.00 0.00 0.00 0.00 0.00
0.01 0.02 0.01 0.05 0.01 0.01 0.02 0.04 0.04 0.03 0.03 0.04 0.02 0.01 0.01 0.02 0.01 0.00 0.01 0.01 0.00 0.03 0.01 0.01 0.01 0.00 0.01 0.01 0.01 0.00 0.00 0.01 0.01 0.02 0.02 0.02 0.04 0.02 0.02 0.03 0.03 0.03 0.02 0.04 0.04 0.04 0.08 0.09 0.03 0.02 0.00 0.01 0.01 0.01 0.01 0.01 0.01 0.02 0.02 0.02 0.00 0.00 0.00 0.01 0.01 0.02 0.02 0.00 0.00 0.00 0.00 0.00 0.00 0.00 0.00 0.00 0.00 0.00 0.00 0.00 0.00 0.00 0.00 0.00 0.00
0.04 0.09 0.04 0.05 0.10 0.13 0.12 0.11 0.10 0.06 0.05 0.03 0.01 0.01 0.00 0.01 0.02 0.07 0.02 0.01 0.06 0.02 0.01 0.00 0.01 0.01 0.01 0.01 0.01 0.00 0.00 0.01 0.02 0.04 0.01 0.03 0.02 0.02 0.01 0.04 0.05 0.09 0.10 0.04 0.05 0.10 0.07 0.15 0.06 0.03 0.02 0.01 0.01 0.01 0.01 0.03 0.02 0.01 0.01 0.01 0.01 0.01 0.00 0.01 0.02 0.01 0.01 0.00 0.00 0.00 0.00 0.00 0.00 0.00 0.00 0.00 0.00 0.00 0.00 0.00 0.00 0.00 0.00 0.00 0.00
0.06 0.08 0.10 0.18 0.22 0.21 0.15 0.12 0.10 0.07 0.02 0.01 0.00 0.01 0.00 0.01 0.02 0.01 0.02 0.00 0.01 0.01 0.01 0.00 0.00 0.01 0.01 0.00 0.00 0.00 0.03 0.01 0.02 0.01 0.01 0.03 0.04 0.04 0.03 0.02 0.08 0.22 0.11 0.10 0.17 0.29 0.10 0.07 0.18 0.11 0.04 0.04 0.03 0.01 0.01 0.02 0.04 0.04 0.01 0.01 0.01 0.01 0.02 0.02 0.02 0.01 0.03 0.02 0.02 0.02 0.01 0.00 0.00 0.00 0.00 0.00 0.00 0.00 0.00 0.00 0.00 0.00 0.00 0.00 0.00
0.22 0.21 0.24 0.24 0.21 0.18 0.14 0.10 0.06 0.03 0.01 0.00 0.01 0.01 0.01 0.00 0.01 0.02 0.00 0.01 0.01 0.01 0.00 0.00 0.01 0.00 0.00 0.01 0.00 0.00 0.00 0.00 0.00 0.05 0.05 0.05 0.02 0.03 0.04 0.03 0.03 0.13 0.08 0.04 0.03 0.04 0.15 0.12 0.06 0.10 0.06 0.03 0.02 0.06 0.05 0.02 0.04 0.02 0.04 0.05 0.08 0.03 0.02 0.04 0.03 0.01 0.01 0.02 0.02 0.01 0.00 0.00 0.00 0.00 0.00 0.00 0.00 0.00 0.00 0.00 0.00 0.00 0.00 0.00 0.00
0.29 0.31 0.28 0.26 0.22 0.16 0.09 0.04 0.03 0.02 0.01 0.01 0.01 0.00 0.04 0.01 0.03 0.01 0.01 0.00 0.01 0.00 0.02 0.02 0.01 0.00 0.02 0.02 0.04 0.02 0.05 0.01 0.01 0.01 0.04 0.02 0.03 0.02 0.01 0.02 0.03 0.03 0.07 0.04 0.03 0.04 0.03 0.03 0.03 0.09 0.05 0.05 0.03 0.02 0.02 0.02 0.06 0.05 0.05 0.07 0.06 0.05 0.05 0.08 0.17 0.05 0.02 0.01 0.00 0.00 0.00 0.00 0.00 0.01 0.00 0.00 0.00 0.00 0.00 0.00 0.00 0.00 0.00 0.00 0.00
0.42 0.34 0.22 0.14 0.07 0.04 0.02 0.03 0.04 0.03 0.03 0.04 0.04 0.02 0.04 0.01 0.02 0.01 0.01 0.00 0.01 0.08 0.05 0.11 0.04 0.03 0.03 0.08 0.06 0.08 0.06 0.03 0.02 0.03 0.02 0.02 0.02 0.01 0.04 0.02 0.05 0.05 0.02 0.08 0.03 0.02 0.07 0.04 0.03 0.07 0.06 0.05 0.04 0.03 0.04 0.07 0.05 0.06 0.05 0.04 0.04 0.03 0.03 0.04 0.05 0.03 0.02 0.03 0.03 0.00 0.00 0.00 0.01 0.00 0.00 0.00 0.00 0.00 0.00 0.00 0.00 0.00 0.00 0.00 0.00
0.26 0.17 0.11 0.08 0.05 0.03 0.03 0.01 0.05 0.03 0.04 0.05 0.01 0.02 0.01 0.03 0.04 0.02 0.02 0.01 0.07 0.08 0.02 0.03 0.11 0.10 0.06 0.08 0.23 0.11 0.08 0.08 0.08 0.04 0.02 0.03 0.08 0.10 0.03 0.03 0.02 0.02 0.02 0.02 0.02 0.02 0.03 0.04 0.07 0.06 0.09 0.16 0.04 0.03 0.04 0.03 0.02 0.03 0.04 0.07 0.09 0.07 0.03 0.10 0.03 0.03 0.03 0.02 0.02 0.02 0.01 0.01 0.01 0.01 0.00 0.00 0.00 0.00 0.00 0.00 0.00 0.00 0.00 0.00 0.00
0.14 0.13 0.12 0.10 0.08 0.05 0.03 0.04 0.03 0.10 0.05 0.06 0.03 0.00 0.00 0.00 0.02 0.02 0.01 0.05 0.13 0.05 0.08 0.03 0.01 0.03 0.09 0.10 0.08 0.03 0.04 0.07 0.09 0.05 0.05 0.05 0.03 0.03 0.03 0.02 0.01 0.01 0.01 0.02 0.02 0.02 0.03 0.03 0.06 0.04 0.04 0.07 0.04 0.02 0.02 0.03 0.03 0.08 0.08 0.06 0.09 0.08 0.10 0.13 0.10 0.04 0.03 0.03 0.03 0.02 0.01 0.01 0.00 0.00 0.00 0.00 0.00 0.00 0.00 0.00 0.00 0.00 0.00 0.00 0.00
0.15 0.17 0.21 0.15 0.11 0.07 0.05 0.04 0.06 0.06 0.05 0.03 0.00 0.00 0.00 0.00 0.00 0.00 0.03 0.04 0.15 0.16 0.12 0.07 0.12 0.07 0.11 0.06 0.13 0.19 0.22 0.16 0.14 0.09 0.06 0.03 0.02 0.01 0.01 0.01 0.03 0.01 0.00 0.00 0.01 0.02 0.02 0.04 0.04 0.07 0.04 0.05 0.04 0.04 0.06 0.07 0.07 0.07 0.05 0.10 0.06 0.08 0.13 0.16 0.13 0.10 0.08 0.03 0.04 0.03 0.03 0.01 0.01 0.00 0.00 0.00 0.00 0.00 0.00 0.00 0.00 0.00 0.00 0.00 0.00
0.40 0.15 0.17 0.24 0.21 0.29 0.07 0.05 0.04 0.04 0.05 0.00 0.00 0.00 0.00 0.00 0.00 0.01 0.04 0.11 0.12 0.06 0.02 0.02 0.06 0.09 0.09 0.11 0.16 0.34 0.14 0.06 0.09 0.06 0.02 0.01 0.01 0.01 0.01 0.01 0.00 0.00 0.00 0.00 0.00 0.03 0.08 0.05 0.04 0.03 0.03 0.04 0.13 0.15 0.06 0.10 0.05 0.14 0.28 0.53 0.49 0.20 0.12 0.12 0.10 0.05 0.03 0.02 0.02 0.02 0.03 0.01 0.01 0.00 0.00 0.00 0.00 0.00 0.00 0.00 0.00 0.00 0.00 0.00 0.00
0.41 0.31 0.27 0.20 0.14 0.16 0.08 0.13 0.09 0.07 0.05 0.02 0.01 0.00 0.00 0.01 0.01 0.02 0.01 0.11 0.21 0.13 0.02 0.13 0.15 0.03 0.05 0.08 0.48 0.52 0.11 0.13 0.05 0.02 0.04 0.03 0.06 0.07 0.07 0.05 0.04 0.02 0.01 0.02 0.00 0.00 0.01 0.02 0.08 0.07 0.03 0.48 0.28 0.12 0.10 0.06 0.10 0.19 0.40 0.61 0.74 0.59 0.21 0.12 0.06 0.02 0.00 0.01 0.03 0.05 0.05 0.03 0.04 0.01 0.00 0.00 0.00 0.00 0.00 0.00 0.00 0.00 0.00 0.00 0.00
0.80 0.58 0.32 0.27 0.13 0.10 0.13 0.08 0.20 0.11 0.04 0.03 0.02 0.01 0.00 0.00 0.00 0.00 0.03 0.20 0.32 0.02 0.03 0.03 0.04 0.11 0.42 0.75 0.49 0.20 0.06 0.12 0.12 0.02 0.04 0.05 0.03 0.05 0.06 0.04 0.04 0.13 0.08 0.09 0.09 0.18 0.09 0.09 0.07 0.04 0.03 0.07 0.05 0.07 0.04 0.03 0.03 0.13 0.62 0.76 0.82 0.40 0.25 0.20 0.07 0.01 0.02 0.01 0.03 0.07 0.10 0.03 0.03 0.02 0.01 0.01 0.00 0.00 0.00 0.00 0.00 0.00 0.00 0.00 0.00
1.09 0.74 0.41 0.31 0.18 0.26 0.25 0.25 0.21 0.15 0.06 0.03 0.01 0.01 0.01 0.02 0.01 0.02 0.04 0.18 0.24 0.03 0.03 0.07 0.06 0.12 0.24 0.52 0.37 0.26 0.22 0.18 0.05 0.07 0.18 0.37 0.29 0.26 0.05 0.05 0.06 0.03 0.05 0.15 0.04 0.03 0.02 0.02 0.02 0.02 0.03 0.02 0.01 0.01 0.03 0.02 0.04 0.44 1.04 0.83 0.37 0.31 0.59 0.54 0.35 0.07 0.02 0.02 0.02 0.03 0.06 0.04 0.03 0.04 0.03 0.02 0.01 0.00 0.00 0.00 0.00 0.00 0.00 0.00 0.00
0.58 0.70 0.58 0.49 0.20 0.66 0.50 0.39 0.20 0.09 0.11 0.07 0.07 0.05 0.04 0.03 0.02 0.03 0.03 0.03 0.06 0.05 0.08 0.10 0.19 0.42 0.35 0.41 0.53 0.47 0.34 0.10 0.08 0.14 0.21 0.12 0.04 0.04 0.12 0.10 0.08 0.10 0.10 0.13 0.06 0.02 0.02 0.00 0.00 0.00 0.00 0.00 0.00 0.00 0.01 0.00 0.26 0.96 1.68 1.09 0.11 0.68 0.81 1.06 0.53 0.21 0.05 0.02 0.03 0.05 0.07 0.08 0.06 0.03 0.03 0.02 0.02 0.01 0.01 0.00 0.01 0.00 0.00 0.00 0.00
1.37 1.77 1.57 0.54 1.43 1.75 1.30 0.57 0.31 0.18 0.12 0.08 0.21 0.29 0.35 0.03 0.04 0.05 0.05 0.06 0.12 0.12 0.13 0.42 0.69 0.67 0.24 0.28 0.10 0.13 0.24 0.14 0.03 0.12 0.03 0.22 0.26 0.05 0.05 0.07 0.02 0.07 0.06 0.08 0.14 0.08 0.01 0.00 0.00 0.00 0.00 0.00 0.01 0.01 0.02 0.02 1.57 1.75 1.48 0.44 0.21 0.75 1.29 1.03 0.63 0.16 0.07 0.04 0.06 0.03 0.15 0.19 0.06 0.03 0.05 0.03 0.09 0.01 0.02 0.04 0.01 0.01 0.00 0.00 0.00
1.82 2.17 2.01 2.12 3.24 2.76 2.27 1.88 0.54 0.34 0.31 0.42 0.38 0.39 0.71 0.84 0.98 0.87 0.30 0.19 0.21 0.33 0.34 0.60 0.93 0.33 0.37 0.13 0.14 0.18 0.12 0.07 0.10 0.17 0.06 0.04 0.01 0.03 0.10 0.06 0.06 0.10 0.12 0.12 0.09 0.09 0.11 0.06 0.03 0.03 0.02 0.02 0.07 0.05 0.04 0.01 0.01 0.55 0.83 0.79 0.70 1.53 1.67 1.00 0.72 0.44 0.23 0.12 0.17 0.04 0.17 0.25 0.12 0.06 0.14 0.13 0.13 0.06 0.17 0.02 0.03 0.02 0.02 0.08 0.01